{"data":{"norad_id":48099,"epoch":"2026-09-19T22:05:03.192576Z","epoch_age_seconds":79974,"freshness":"FRESH","line1":"1 48099U 21027H   26262.92017584  .00001515  00000+0  60575-4 0  9994","line2":"2 48099  53.1608 343.8809 0001392  80.2514 279.8645 15.31708509302235","mean_motion":15.31708509,"eccentricity":0.0001392,"inclination_deg":53.1608,"raan_deg":343.8809,"arg_perigee_deg":80.2514,"mean_anomaly_deg":279.8645,"bstar":6.0575e-5,"rev_number":30223,"period_min":94.012665695781,"perigee_km":469.76127030988,"apogee_km":471.6679906038,"semimajor_km":6848.8516304568,"source":"CELESTRAK","updated_at":"2026-09-20T09:00:38.762258Z"}}